Lexington Weather

Lexington, Massachusetts, USA

78°F
8/3/2020 7:54am 
  • Lexington Conditions: Clear
  • Temperature: 77.5°F / 25.3°CWarmer 1.0°F than last hour.
  • Dew Point: 73.0°FDecreased 1.8°Fsince last hour.
  • Relative Humidity: 86%Decreased 9.0% since last hour.
  • Wind: Wind from SW SW 3 mph, 10-min avg: 3 mph, gust: 10 mph
  • Barometer: 29.85 in Steady
  • Visibility: 10 miles
  • Rain Today: 0.00 in
  •   
Southeast Middlesex County - Tropical Storm Watch - Tropical Cyclone Statement
 - SEE ALL NEARBY ALERTS -

Regional Weather Roundup
for Boston / Norton, MA

        
000
ASUS41 KBOX 310304
RWRBOX

REGIONAL WEATHER ROUNDUP
NATIONAL WEATHER SERVICE BOSTON/NORTON MA
1100 PM EDT THU JUL 30 2020

NOTE:  "FAIR" INDICATES FEW OR NO CLOUDS BELOW 12,000 FEET WITH NO 
SIGNIFICANT WEATHER AND/OR OBSTRUCTIONS TO VISIBILITY.

MAZALL-310400-
EASTERN MASSACHUSETTS
  
CITY           SKY/WX    TMP DP  RH WIND       PRES   REMARKS
BOSTON         MOCLDY    79  61  53 W9        29.82S                  
BEVERLY        PTCLDY    71  67  87 W5        29.82R                  
LAWRENCE       PTCLDY    73  67  81 S5        29.84R                  
BEDFORD        MOCLDY    73  65  75 W5        29.81S                  
BLUE HILL      NOT AVBL                                               
NORWOOD        MOCLDY    73  66  78 CALM      29.83R                  
MARSHFIELD     MOCLDY    73  68  83 CALM      29.82S                  
PLYMOUTH       CLOUDY    76  72  87 S3        29.84R                  
TAUNTON        MOCLDY    74  71  91 CALM      29.83R                  
NEW BEDFORD    CLOUDY    77  75  93 W5        29.83R                  
$$

MAZALL-310400-
CAPE COD AND THE ISLANDS
  
CITY           SKY/WX    TMP DP  RH WIND       PRES   REMARKS
FALMOUTH       CLOUDY    75  75 100 SW8       29.85R                  
HYANNIS        CLOUDY    79  76  90 SW7       29.83R                  
CHATHAM        CLOUDY    78  75  90 SW6       29.85R                  
PROVINCETOWN   CLOUDY    72  69  90 SW3       29.83R                  
NANTUCKET      CLOUDY    74  72  93 SW10      29.85R                  
MARTHAS VNYRD  CLOUDY    78  76  93 SW7       29.84R                  
$$
 
MAZALL-310400-
CENTRAL AND WESTERN MASSACHUSETTS
  
CITY           SKY/WX    TMP DP  RH WIND       PRES   REMARKS
WORCESTER      MOCLDY    73  62  68 W8        29.88R                  
FITCHBURG      PTCLDY    72  63  73 N5        29.84S                  
ORANGE         PTCLDY    69  67  93 N5        29.87R                  
SPRINGFIELD    MOCLDY    71  67  87 CALM      29.84R                  
WESTFIELD      CLOUDY    73  67  81 CALM      29.85R                  
NORTH ADAMS    PTCLDY    67  65  93 CALM      29.89R                  
PITTSFIELD     MOCLDY    69  66  90 CALM      29.89R                  
$$
 
RIZALL-310400-
RHODE ISLAND
  
CITY           SKY/WX    TMP DP  RH WIND       PRES   REMARKS
PROVIDENCE     CLOUDY    79  69  71 W7        29.83S                  
NEWPORT        CLOUDY    79  72  79 CALM      29.83S                  
BLOCK ISLAND   CLOUDY    75  74  96 W7        29.85S                  
SMITHFIELD     MOCLDY    74  67  78 W3        29.85S                  
WESTERLY       CLOUDY    75  69  81 MISG      29.84S                  
$$
 
CTZALL-310400-
CONNECTICUT
  
CITY           SKY/WX    TMP DP  RH WIND       PRES   REMARKS
BRADLEY INTL   CLOUDY    76  66  71 N3        29.84R                  
HARTFORD       CLOUDY    79  66  64 NE3       29.84R                  
BRIDGEPORT     CLOUDY    76  71  85 CALM      29.83S                  
DANBURY        CLOUDY    72  69  90 SW3       29.88R                  
GROTON         CLOUDY    75  70  84 CALM      29.83R                  
NEW HAVEN      CLOUDY    76  73  91 CALM      29.83S                  
CHESTER        FAIR      73  72  94 CALM      29.85S                  
MERIDEN        CLOUDY    75  69  81 CALM      29.84S                  
WILLIMANTIC    MOCLDY    74  67  78 NE3       29.85R                  
OXFORD         CLOUDY    71  68  90 CALM      29.88S                  
$$

MEZ002-015-021-024-NHZ003-005-008-011-012-014-VTZ005-008-310400-
NORTHERN NEW ENGLAND
  
CITY           SKY/WX    TMP DP  RH WIND       PRES   REMARKS
PORTLAND ME    PTCLDY    73  65  75 N5        29.82S                  
BANGOR ME      PTCLDY    68  63  84 S5        29.79F                  
CONCORD NH     PTCLDY    71  59  65 N3        29.85R                  
MANCHESTER NH  PTCLDY    78  60  53 NW6       29.82R                  
NASHUA NH      MOCLDY    76  64  66 NW8       29.84R                  
PORTSMOUTH NH  PTCLDY    72  62  71 NW8       29.81R                  
JAFFREY NH     PTCLDY    67  63  87 CALM      29.89R                  
KEENE NH       PTCLDY    67  65  93 S5        29.87R                  
BURLINGTON VT  MOCLDY    69  63  81 NE6       29.86S                  
MT. WASHINGTON NOT AVBL                                               
$$

NYZ052-076-310400-
EASTERN NEW YORK
  
CITY           SKY/WX    TMP DP  RH WIND       PRES   REMARKS
ALBANY         PTCLDY    66  64  93 W9        29.87R                  
NEW YORK CITY  CLOUDY    82  65  56 N9        29.83R                  
$$
 
ANZALL-310400-
MARINE OBSERVATIONS
  
STATION/POSITION TIME  TEMP    WIND        PRES    VSBY  WAVE
                       AIR SEA DIR/SP/G                  HT/PER
                 (UTC) (F)     (DEG/KT/KT) (MB)    (MI)  (FT/S)
BOSTON BUOY      0150   72 73  250/  2/  4 1008.1          1/ 9
BUZZARDS BAY     0200          230/ 13/ 14 1011.1R
NANTUCKET SOUND  0240      78  230/ 12/ 14 1009.7R
MASS BAY-STELLWA 0204   74     310/  8/ 10 1007.1R  1 7/8  1/ 8
ISLE OF SHOALS   NOT AVBL
S OF BLOCK IS    0226      77                N/A           3/ 6
$$

......................KEY.........................
  SKY/WX - SKY CONDITION/PRESENT WEATHER
  TMP    - TEMPERATURE IN FAHRENHEIT
  DWPT   - DEWPOINT IN FAHRENHEIT
  RH     - RELATIVE HUMIDITY IN PERCENT
  WIND   - DIRECTION AND SPEED IN MPH
  PRES   - MEAN SEA LEVEL PRESSURE IN INCHES OF HG
  WCI    - WIND CHILL INDEX
  VSB    - VISIBILITY IN MILES
  HX     - HEAT INDEX
  TC     - TEMPERATURE IN CELSIUS
  VRB    - VARIABLE WIND DIRECTION
  N/A    - NOT AVAILABLE
  
      

Other recent Regional Weather Roundups

Mon Aug 3, 7:04am

Mon Aug 3, 6:04am

Mon Aug 3, 5:04am

Mon Aug 3, 4:04am

Mon Aug 3, 3:04am

Mon Aug 3, 2:04am

Mon Aug 3, 1:04am

Mon Aug 3, 12:05am

Sun Aug 2, 11:04pm

Sun Aug 2, 10:04pm

Sun Aug 2, 9:04pm

Sun Aug 2, 8:04pm

Sun Aug 2, 7:04pm

Sun Aug 2, 6:04pm

Sun Aug 2, 5:04pm

Sun Aug 2, 4:05pm

Sun Aug 2, 3:04pm

Sun Aug 2, 2:05pm

Sun Aug 2, 1:04pm

Sun Aug 2, 12:04pm

Sun Aug 2, 11:04am

Sun Aug 2, 10:04am

Sun Aug 2, 9:05am

Sun Aug 2, 8:05am

Sun Aug 2, 7:04am

Sun Aug 2, 6:04am

Sun Aug 2, 5:04am

Sun Aug 2, 4:05am

Sun Aug 2, 3:04am

Sun Aug 2, 2:04am

Sun Aug 2, 1:04am

Sun Aug 2, 12:05am

Sat Aug 1, 11:04pm

Sat Aug 1, 10:04pm

Sat Aug 1, 9:04pm

Sat Aug 1, 8:05pm

Sat Aug 1, 7:04pm

Sat Aug 1, 6:04pm

Sat Aug 1, 5:05pm

Sat Aug 1, 4:05pm

Sat Aug 1, 3:04pm

Sat Aug 1, 2:04pm

Sat Aug 1, 1:04pm

Sat Aug 1, 12:04pm

Sat Aug 1, 11:05am

Sat Aug 1, 10:05am

Sat Aug 1, 9:04am

Sat Aug 1, 8:04am

Sat Aug 1, 7:04am

Sat Aug 1, 6:04am

Sat Aug 1, 5:04am

Sat Aug 1, 4:05am

Sat Aug 1, 3:04am

Sat Aug 1, 2:04am

Sat Aug 1, 1:04am

Sat Aug 1, 12:05am

Fri Jul 31, 11:05pm

Fri Jul 31, 10:04pm

Fri Jul 31, 9:04pm

Fri Jul 31, 8:05pm

Fri Jul 31, 7:05pm

Fri Jul 31, 6:04pm

Fri Jul 31, 5:04pm

Fri Jul 31, 4:05pm

Fri Jul 31, 3:04pm

Fri Jul 31, 2:05pm

Fri Jul 31, 1:04pm

Fri Jul 31, 12:04pm

Fri Jul 31, 11:04am

Fri Jul 31, 10:04am

Fri Jul 31, 9:04am

Fri Jul 31, 8:04am

Fri Jul 31, 7:04am

Fri Jul 31, 6:04am

Fri Jul 31, 5:04am

Fri Jul 31, 4:04am

Fri Jul 31, 3:04am

Fri Jul 31, 2:04am

Fri Jul 31, 1:05am

Fri Jul 31, 12:04am

Thu Jul 30, 10:04pm

Thu Jul 30, 9:04pm

Thu Jul 30, 8:04pm

Thu Jul 30, 7:05pm

Thu Jul 30, 6:04pm

Thu Jul 30, 5:04pm

Thu Jul 30, 4:05pm

Thu Jul 30, 3:04pm

Thu Jul 30, 2:05pm

Thu Jul 30, 1:04pm

Thu Jul 30, 12:04pm

Thu Jul 30, 11:04am

Thu Jul 30, 10:05am

Thu Jul 30, 9:04am

Thu Jul 30, 8:04am

Thu Jul 30, 7:04am

Thu Jul 30, 6:04am

Thu Jul 30, 5:04am

Thu Jul 30, 4:04am

Thu Jul 30, 3:04am

Thu Jul 30, 2:04am

Thu Jul 30, 1:04am

Thu Jul 30, 12:04am

Wed Jul 29, 11:04pm

Wed Jul 29, 10:04pm

Wed Jul 29, 9:04pm

Wed Jul 29, 8:04pm

Wed Jul 29, 7:05pm

Wed Jul 29, 6:05pm

Wed Jul 29, 5:04pm

Wed Jul 29, 4:04pm

Wed Jul 29, 3:04pm

Wed Jul 29, 2:04pm

Wed Jul 29, 1:05pm

Wed Jul 29, 12:05pm

Wed Jul 29, 11:04am

Wed Jul 29, 10:04am

Wed Jul 29, 9:04am

Wed Jul 29, 8:04am

Wed Jul 29, 7:04am

Wed Jul 29, 6:04am

Wed Jul 29, 5:04am

Wed Jul 29, 4:04am

Wed Jul 29, 3:04am

Wed Jul 29, 2:04am

Wed Jul 29, 1:04am

Wed Jul 29, 12:05am

Tue Jul 28, 11:05pm

Tue Jul 28, 10:05pm

Tue Jul 28, 9:04pm

Tue Jul 28, 8:04pm

Tue Jul 28, 7:04pm

Tue Jul 28, 6:04pm

Tue Jul 28, 5:04pm

Tue Jul 28, 4:05pm

Tue Jul 28, 3:05pm

Tue Jul 28, 2:04pm

Tue Jul 28, 1:05pm

Tue Jul 28, 12:04pm

Tue Jul 28, 11:04am

Tue Jul 28, 10:04am

Tue Jul 28, 9:04am

Tue Jul 28, 8:04am

Tue Jul 28, 7:04am

Tue Jul 28, 6:04am

Tue Jul 28, 5:04am

Tue Jul 28, 4:04am

Tue Jul 28, 3:04am

Tue Jul 28, 2:04am

Tue Jul 28, 1:04am

Tue Jul 28, 12:05am

Mon Jul 27, 11:04pm

Mon Jul 27, 10:05pm

Mon Jul 27, 9:05pm

Mon Jul 27, 8:04pm

Mon Jul 27, 7:04pm

Mon Jul 27, 6:05pm

Mon Jul 27, 5:05pm

Mon Jul 27, 4:04pm

Mon Jul 27, 3:04pm

Mon Jul 27, 2:04pm

Mon Jul 27, 1:04pm

Mon Jul 27, 12:04pm

Mon Jul 27, 11:04am

Mon Jul 27, 10:04am

Mon Jul 27, 9:04am

Mon Jul 27, 8:04am

Meta data:

ID: 7fd5da7e-cb29-4122-8b16-3e8def1ba3b9
Link: https://api.weather.gov/products/7fd5da7e-cb29-4122-8b16-3e8def1ba3b9